Flag for Switzerland Weather past 2 weeks in Bern, Bern, Switzerland

Now
34 °F

Passing clouds.


Feels Like: 26 °F
Forecast: 25 / 35 °F
Wind: 9 mph from West

Location: Bern / Belp

Current Time: Jan 30, 2015 at 11:09:49 PM

Latest Report: Jan 30, 2015 at 10:20 PM


Visibility: N/A

Pressure: 28.97 "Hg

Humidity: 81%

Dew point: 28 °F

Location of BernLocation

Historic Weather in Bern — Graph

°F

Bern temperature yesterday

Maximum temperature yesterday: 43 °F (at 3:20 AM)
Minimum temperature yesterday: 32 °F (at 12:20 AM)
Average temperature yesterday: 36 °F

Past Weeks' High & Low Weather Summary

 TemperatureHumidityPressure
High45 °F (Jan 16, 6:20 PM)100% (Jan 15, 9:50 PM)30.39 "Hg (Jan 15, 9:50 PM)
Low19 °F (Jan 28, 7:20 AM)56% (Jan 30, 4:20 PM)28.88 "Hg (Jan 29, 11:20 PM)
Average32 °F88%29.90 "Hg
* Reported Jan 15 9:20 PM — Jan 30 9:20 PM, Bern, Weather by CustomWeather, © 2014

Note: Actual official high and low records may vary slightly from our data, if they occured in-between our weather recording intervals... More about our weather records

Advertising

Bern weather history for previous 24 hours

 ConditionsComfort  
Time TempWeatherWind HumidityBarometerVisibility
9:20 PM
Jan 30
30 °FLight snow. Partly cloudy.2 mph93%28.97 "HgN/A
8:50 PM30 °FLight snow. Passing clouds.2 mph93%28.97 "Hg4 mi
8:20 PM30 °FLight snow. Partly cloudy.2 mph93%28.94 "HgN/A
7:50 PM30 °FLight snow. Passing clouds.2 mph93%28.94 "HgN/A
7:20 PM32 °FPassing clouds.3 mph80%28.94 "HgN/A
6:50 PM32 °FPassing clouds.3 mph80%28.94 "HgN/A
6:20 PM32 °FPassing clouds.3 mph80%28.94 "HgN/A
5:50 PM34 °FSnow showers. Passing clouds.7 mph70%28.94 "Hg1 mi
5:20 PM36 °FPartly sunny.5 mph56%28.94 "HgN/A
4:50 PM36 °FPartly sunny.1 mph56%28.94 "HgN/A
4:20 PM36 °FPartly sunny.5 mph56%28.94 "HgN/A
3:50 PM36 °FPartly sunny.8 mph60%28.94 "HgN/A
3:20 PM36 °FBroken clouds.12 mph60%28.97 "HgN/A
2:50 PM36 °FBroken clouds.9 mph65%28.97 "HgN/A
2:20 PM37 °FPartly sunny.10 mph60%28.97 "HgN/A
1:50 PM37 °FBroken clouds.12 mph60%29.00 "HgN/A
1:20 PM36 °FScattered clouds.12 mph70%29.03 "HgN/A
12:50 PM36 °FBroken clouds.12 mph70%29.03 "HgN/A
12:20 PM36 °FBroken clouds.10 mph65%29.06 "HgN/A
11:50 AM36 °FScattered clouds.6 mph65%29.06 "Hg4 mi
11:20 AM34 °FBroken clouds.7 mph70%29.06 "HgN/A
10:50 AM32 °FBroken clouds.5 mph75%29.09 "Hg5 mi
10:20 AM32 °FPartly sunny.7 mph69%29.09 "Hg5 mi
9:50 AM32 °FSnow flurries. Broken clouds.5 mph69%29.09 "Hg2 mi
9:20 AM32 °FSnow flurries. Broken clouds.7 mph69%29.09 "Hg2 mi
8:50 AM30 °FBroken clouds.6 mph75%29.09 "HgN/A
8:20 AM32 °FBroken clouds.5 mph69%29.09 "HgN/A
7:50 AM30 °FPartly cloudy.10 mph75%29.09 "HgN/A
7:20 AM32 °FPartly cloudy.14 mph75%29.06 "HgN/A
6:50 AM32 °FPartly cloudy.15 mph75%29.06 "HgN/A
6:20 AM32 °FPassing clouds.15 mph69%29.06 "HgN/A
5:50 AM32 °FPassing clouds.20 mph75%29.06 "HgN/A
5:20 AM34 °FClear.16 mph75%29.03 "HgN/A
4:20 AM32 °FSnow showers. Dense fog.20 mph93%28.97 "Hg1 mi
3:50 AM34 °FLight snow. Passing clouds.16 mph87%28.94 "HgN/A
3:20 AM34 °FLight snow. Passing clouds.18 mph87%28.94 "Hg2 mi
2:50 AM36 °FLight snow. Partly cloudy.18 mph87%28.94 "Hg5 mi
2:20 AM39 °FSprinkles. Passing clouds.13 mph81%28.88 "HgN/A
1:50 AM39 °FChilly.13 mph81%28.88 "HgN/A
1:20 AM39 °FLight rain. Passing clouds.9 mph81%28.88 "HgN/A
12:50 AM34 °FLight snow. Partly cloudy.3 mph100%28.88 "Hg2 mi
12:20 AM34 °FSnow. Dense fog.2 mph100%28.88 "Hg1 mi
11:50 PM
Jan 29
34 °FRain. Partly cloudy.2 mph100%28.88 "Hg3 mi
11:20 PM34 °FRain. Partly cloudy.2 mph100%28.88 "Hg2 mi
Weather by CustomWeather, © 2014

See weather overviewHow to use our weather pages